CW9425 Weather Reports


time (UTC)temp
F
wind
direction
speed
knots
gust
knots
rain 1hr
in
rain 24hr
in
rain mn
in
humidity
%
barometer
mb
20260505214040 60 248 0.0 0.0 0.00 0.00 0.04 51 1010.2
20260505213525 60 248 0.0 0.0 0.00 0.00 0.04 50 1010.1
20260505213018 59 248 1.7 0.0 0.00 0.00 0.04 49 1010.0
20260505212554 59 248 1.7 0.0 0.00 0.00 0.04 49 1010.0
20260505212033 59 249 2.6 0.0 0.00 0.00 0.04 50 1009.9
20260505211514 60 261 2.6 0.0 0.00 0.00 0.04 50 1010.1
20260505211056 60 261 1.7 0.0 0.00 0.00 0.04 50 1010.0
20260505210536 60 260 0.9 0.0 0.00 0.00 0.04 51 1010.1
20260505210022 60 137 0.9 0.0 0.00 0.00 0.04 51 1010.0
20260505205502 60 294 0.0 0.0 0.00 0.00 0.04 50 1009.9
20260505205046 60 280 0.0 0.0 0.00 0.00 0.04 52 1009.9
20260505204528 60 279 0.0 0.0 0.00 0.00 0.04 52 1009.9
20260505204015 60 269 0.0 0.0 0.00 0.00 0.04 52 1010.1
20260505203555 60 196 0.9 0.0 0.00 0.00 0.04 52 1010.1
20260505203038 60 196 1.7 0.0 0.00 0.00 0.04 53 1010.2
20260505202523 59 184 2.6 0.0 0.00 0.00 0.04 53 1010.3
20260505202104 60 257 1.7 0.0 0.00 0.00 0.04 52 1010.1
20260505201554 60 262 0.0 0.0 0.00 0.00 0.04 56 1010.0
20260505201033 59 240 0.9 0.0 0.00 0.00 0.04 60 1010.1
20260505200519 57 240 0.9 0.0 0.00 0.00 0.04 59 1010.1
20260505200004 56 241 0.0 0.0 0.00 0.00 0.04 61 1010.3
20260505195552 56 241 0.0 0.0 0.00 0.00 0.04 63 1010.3
20260505195037 56 238 0.0 0.0 0.00 0.00 0.04 63 1010.5
20260505194522 56 238 0.9 0.0 0.00 0.00 0.04 64 1010.5
20260505194007 55 239 0.9 0.0 0.00 0.00 0.04 65 1010.5
20260505193556 55 239 0.9 0.0 0.00 0.00 0.04 68 1010.6
20260505193041 55 195 1.7 0.0 0.00 0.00 0.04 68 1010.6
20260505192529 54 198 0.9 0.0 0.00 0.00 0.04 69 1010.7
20260505192014 54 196 1.7 0.0 0.00 0.00 0.04 71 1010.8
20260505191606 54 202 2.6 0.0 0.00 0.00 0.04 72 1010.8
20260505191039 54 257 1.7 0.0 0.00 0.00 0.04 74 1010.8
20260505190519 54 238 0.0 0.0 0.00 0.00 0.04 75 1010.8
20260505190106 54 244 0.0 0.0 0.00 0.00 0.04 75 1010.8
20260505185541 54 244 0.0 0.0 0.00 0.00 0.03 72 1010.8
20260505185020 54 256 0.9 0.0 0.00 0.00 0.03 72 1010.9
20260505184502 55 256 2.6 0.0 0.00 0.00 0.03 68 1010.9
20260505184046 56 256 2.6 0.0 0.00 0.00 0.03 65 1011.0
20260505183526 57 205 3.5 0.0 0.00 0.00 0.02 60 1011.0
20260505183006 59 201 3.5 0.0 0.00 0.00 0.00 55 1010.9
20260505182549 59 191 1.7 0.0 0.00 0.00 0.00 50 1010.7
20260505182030 60 196 1.7 0.0 0.00 0.00 0.00 48 1010.6
20260505181516 61 227 2.6 0.0 0.00 0.00 0.00 49 1010.7
20260505181102 61 221 3.5 0.0 0.00 0.00 0.00 46 1010.6
20260505180539 62 221 1.7 0.0 0.00 0.00 0.00 43 1010.6
20260505180020 64 203 0.0 0.0 0.00 0.00 0.00 41 1010.6
20260505175503 64 250 0.0 0.0 0.00 0.00 0.00 40 1010.6
20260505175048 64 100 0.0 0.0 0.00 0.00 0.00 41 1010.5
20260505174530 63 293 0.0 0.0 0.00 0.00 0.00 43 1010.5
20260505174012 62 291 0.0 0.0 0.00 0.00 0.00 44 1010.5
20260505173554 61 291 0.0 0.0 0.00 0.00 0.00 44 1010.5
20260505173042 60 291 0.0 0.0 0.00 0.00 0.00 45 1010.5
20260505172514 59 292 0.0 0.0 0.00 0.00 0.00 46 1010.5
20260505172057 59 291 0.0 0.0 0.00 0.00 0.00 46 1010.5
20260505171545 58 292 0.0 0.0 0.00 0.00 0.00 47 1010.6
20260505171020 57 291 0.0 0.0 0.00 0.00 0.00 48 1010.6
20260505170500 56 292 0.0 0.0 0.00 0.00 0.00 50 1010.7
20260505170044 56 292 0.0 0.0 0.00 0.00 0.00 50 1011.0
20260505165527 55 291 0.0 0.0 0.00 0.00 0.00 50 1010.9
20260505165005 55 292 0.0 0.0 0.00 0.00 0.00 51 1010.7
20260505164550 55 286 0.0 0.0 0.00 0.00 0.00 51 1010.6
20260505164030 54 318 0.0 0.0 0.00 0.00 0.00 52 1010.6
20260505163512 54 322 0.0 0.0 0.00 0.00 0.00 52 1010.9
20260505163055 54 299 0.0 0.0 0.00 0.00 0.00 52 1010.9
20260505162535 53 341 0.0 0.0 0.00 0.00 0.00 54 1010.8
20260505162017 53 331 0.0 0.0 0.00 0.00 0.00 55 1010.9
20260505161626 53 315 0.0 0.0 0.00 0.00 0.00 56 1011.0
20260505161043 53 277 0.0 0.0 0.00 0.00 0.00 57 1011.1
20260505160527 53 317 0.0 0.0 0.00 0.00 0.00 59 1011.0
20260505153016 53 286 3.5 0.0 0.00 0.00 0.00 58 1011.3
20260505152501 53 284 1.7 0.0 0.00 0.00 0.00 58 1011.4
20260505152048 53 301 0.9 0.0 0.00 0.00 0.00 59 1011.4
20260505151534 53 296 0.9 0.0 0.00 0.00 0.00 60 1011.4
20260505151008 53 329 1.7 0.0 0.00 0.00 0.00 61 1011.3
20260505150553 52 338 2.6 0.0 0.00 0.00 0.00 62 1011.4
20260505140527 54 329 3.5 0.0 0.00 0.00 0.00 52 1011.4
20260505124530 56 245 0.0 0.0 0.00 0.00 0.00 47 1010.1
20260505124014 56 245 0.0 0.0 0.00 0.00 0.00 47 1010.4
20260505123502 56 245 0.0 0.0 0.00 0.00 0.00 46 1010.3
20260505123048 56 245 0.0 0.0 0.00 0.00 0.00 46 1010.4
20260505122536 56 245 0.0 0.0 0.00 0.00 0.00 45 1010.4
20260505122023 56 245 0.0 0.0 0.00 0.00 0.00 45 1010.4
20260505121512 56 245 0.0 0.0 0.00 0.00 0.00 44 1010.4
20260505121057 56 245 0.0 0.0 0.00 0.00 0.00 44 1010.4
20260505120539 56 238 0.0 0.0 0.00 0.00 0.00 43 1010.4
20260505120045 56 237 0.0 0.0 0.00 0.00 0.00 42 1010.3
20260505115501 56 237 0.0 0.0 0.00 0.00 0.00 42 1010.2
20260505115055 56 238 0.0 0.0 0.00 0.00 0.00 42 1010.2
20260505114537 56 237 0.0 0.0 0.00 0.00 0.00 41 1010.2
20260505114023 56 237 0.0 0.0 0.00 0.00 0.00 40 1010.0
20260505113513 56 238 0.0 0.0 0.00 0.00 0.00 40 1010.0
20260505113101 57 238 0.0 0.0 0.00 0.00 0.00 40 1010.1
20260505112547 57 238 0.0 0.0 0.00 0.00 0.00 39 1010.0
20260505112033 57 237 0.0 0.0 0.00 0.00 0.00 39 1010.0
20260505111516 57 238 0.0 0.0 0.00 0.00 0.00 39 1009.9
20260505111006 57 238 0.0 0.0 0.00 0.00 0.00 38 1010.2
20260505110551 57 237 0.0 0.0 0.00 0.00 0.00 38 1010.3
20260505102048 57 259 0.0 0.0 0.00 0.00 0.00 38 1010.3
20260505101534 57 259 0.0 0.0 0.00 0.00 0.00 38 1010.3
20260505101018 57 259 0.0 0.0 0.00 0.00 0.00 38 1010.1
20260505100503 57 259 0.0 0.0 0.00 0.00 0.00 38 1010.0
20260505100053 57 259 0.0 0.0 0.00 0.00 0.00 38 1010.1
20260505095537 58 259 0.0 0.0 0.00 0.00 0.00 38 1010.0
20260505095019 58 259 0.0 0.0 0.00 0.00 0.00 37 1010.0
20260505094557 58 259 0.0 0.0 0.00 0.00 0.00 38 1010.1
20260505094046 58 259 0.0 0.0 0.00 0.00 0.00 37 1010.1
20260505093530 58 259 0.0 0.0 0.00 0.00 0.00 37 1010.1
20260505093015 58 259 0.0 0.0 0.00 0.00 0.00 37 1010.0
20260505092604 58 259 0.0 0.0 0.00 0.00 0.00 36 1010.0
20260505092047 59 259 0.0 0.0 0.00 0.00 0.00 36 1010.2
20260505091536 59 259 0.0 0.0 0.00 0.00 0.00 36 1010.2
20260505091020 59 259 0.0 0.0 0.00 0.00 0.00 35 1010.1
20260505090505 59 259 0.0 0.0 0.00 0.00 0.00 35 1010.2
20260505090054 59 259 0.0 0.0 0.00 0.00 0.00 35 1010.3
20260505085542 59 259 0.0 0.0 0.00 0.00 0.00 35 1010.5
20260505085026 59 258 0.0 0.0 0.00 0.00 0.00 35 1010.6
20260505084511 60 259 0.0 0.0 0.00 0.00 0.00 34 1010.6
20260505084101 60 259 0.0 0.0 0.00 0.00 0.00 34 1010.7
20260505083544 60 259 0.0 0.0 0.00 0.00 0.00 34 1010.8
20260505083029 60 257 0.0 0.0 0.00 0.00 0.00 34 1011.0
20260505082517 60 257 0.0 0.0 0.00 0.00 0.00 34 1010.9
20260505082004 60 259 0.0 0.0 0.00 0.00 0.00 34 1010.9
20260505081553 60 254 0.0 0.0 0.00 0.00 0.00 34 1010.9
20260505081032 60 267 0.0 0.0 0.00 0.00 0.00 34 1010.9
20260505080512 61 267 0.0 0.0 0.00 0.00 0.00 33 1010.7
20260505075546 61 268 0.0 0.0 0.00 0.00 0.00 33 1011.1
20260505075033 61 268 0.0 0.0 0.00 0.00 0.00 33 1011.1
20260505074518 61 270 0.0 0.0 0.00 0.00 0.00 33 1011.1
20260505074006 61 252 0.0 0.0 0.00 0.00 0.00 33 1011.2
20260505073555 61 268 0.0 0.0 0.00 0.00 0.00 33 1011.0
20260505073059 61 186 0.0 0.0 0.00 0.00 0.00 32 1010.8
20260505072527 62 192 0.0 0.0 0.00 0.00 0.00 32 1010.7
20260505072011 62 217 0.0 0.0 0.00 0.00 0.00 32 1010.7
20260505071603 62 198 0.0 0.0 0.00 0.00 0.00 32 1010.8
20260505071043 62 193 0.0 0.0 0.00 0.00 0.00 32 1010.8
20260505070521 62 213 0.0 0.0 0.00 0.00 0.00 31 1010.8
20260505070005 62 207 0.0 0.0 0.00 0.00 0.00 31 1010.5
20260505065557 62 205 0.0 0.0 0.00 0.00 0.00 31 1010.5
20260505065037 63 242 0.0 0.0 0.00 0.00 0.00 30 1010.5
20260505064533 63 271 0.0 0.0 0.00 0.00 0.00 30 1010.5
20260505064003 63 232 0.0 0.0 0.00 0.00 0.00 30 1010.4
20260505063552 63 185 0.0 0.0 0.00 0.00 0.00 30 1010.4
20260505063038 63 210 0.0 0.0 0.00 0.00 0.00 29 1010.2
20260505062522 63 209 0.0 0.0 0.00 0.00 0.00 29 1010.3
20260505062011 63 238 0.0 0.0 0.00 0.00 0.00 29 1010.6
20260505061559 63 194 0.0 0.0 0.00 0.00 0.00 29 1010.7
20260505061036 64 232 0.0 0.0 0.00 0.00 0.00 28 1010.8
20260505060514 64 205 0.0 0.0 0.00 0.00 0.00 28 1010.6
20260505060002 64 231 0.0 0.0 0.00 0.00 0.00 28 1010.7
20260505055548 64 201 0.0 0.0 0.00 0.00 0.00 28 1010.7
20260505055036 64 243 0.0 0.0 0.00 0.00 0.00 28 1010.7
20260505054525 64 234 0.0 0.0 0.00 0.00 0.00 27 1010.6
20260505054007 64 226 0.0 0.0 0.00 0.00 0.00 27 1010.5
20260505053554 64 230 0.0 0.0 0.00 0.00 0.00 27 1010.5
20260505053046 65 237 0.0 0.0 0.00 0.00 0.00 27 1010.4
20260505052526 65 229 0.0 0.0 0.00 0.00 0.00 27 1010.3
20260505052012 65 234 0.0 0.0 0.00 0.00 0.00 27 1010.3
20260505051603 65 234 0.0 0.0 0.00 0.00 0.00 27 1010.4
20260505051048 65 238 0.0 0.0 0.00 0.00 0.00 27 1010.4
20260505050534 65 225 0.0 0.0 0.00 0.00 0.00 27 1010.4
20260505041511 66 254 0.0 0.0 0.00 0.00 0.00 27 1010.3
20260505041052 66 254 0.0 0.0 0.00 0.00 0.00 27 1010.2
20260505040542 67 254 0.0 0.0 0.00 0.00 0.00 26 1010.2
20260505040024 67 254 0.0 0.0 0.00 0.00 0.00 26 1010.2
20260505035511 67 254 0.0 0.0 0.00 0.00 0.00 26 1010.2
20260505035100 67 254 0.0 0.0 0.00 0.00 0.00 26 1010.3
20260505034546 67 263 0.0 0.0 0.00 0.00 0.00 26 1010.3
20260505034033 67 263 0.0 0.0 0.00 0.00 0.00 26 1010.2
20260505033515 67 265 0.0 0.0 0.00 0.00 0.00 26 1010.1
20260505033003 67 264 0.0 0.0 0.00 0.00 0.00 25 1009.9
20260505032549 67 259 0.0 0.0 0.00 0.00 0.00 25 1009.8
20260505032036 68 259 0.0 0.0 0.00 0.00 0.00 26 1009.8
20260505031538 68 259 0.0 0.0 0.00 0.00 0.00 25 1009.7
20260505031009 68 246 0.0 0.0 0.00 0.00 0.00 25 1009.6
20260505030557 68 260 0.0 0.0 0.00 0.00 0.00 25 1009.6
20260505030045 68 233 0.0 0.0 0.00 0.00 0.00 25 1009.6
20260505025529 68 242 0.0 0.0 0.00 0.00 0.00 25 1009.5
20260505025018 68 217 0.0 0.0 0.00 0.00 0.00 24 1009.5
20260505024503 69 243 0.0 0.0 0.00 0.00 0.00 24 1009.4
20260505024047 69 227 0.0 0.0 0.00 0.00 0.00 24 1009.3
20260505023535 69 257 0.0 0.0 0.00 0.00 0.00 24 1009.2
20260505023020 69 271 0.0 0.0 0.00 0.00 0.00 24 1009.1
20260505022505 69 271 0.0 0.0 0.00 0.00 0.00 23 1009.2
20260505022053 69 259 0.0 0.0 0.00 0.00 0.00 23 1009.2
20260505021542 69 241 0.0 0.0 0.00 0.00 0.00 23 1009.0
20260505021028 70 233 0.0 0.0 0.00 0.00 0.00 23 1009.0
20260505020513 70 241 0.0 0.0 0.00 0.00 0.00 23 1008.9
20260505015547 70 248 0.0 0.0 0.00 0.00 0.00 23 1008.8
20260505015032 70 304 0.0 0.0 0.00 0.00 0.00 23 1008.7
20260505014525 70 234 0.0 0.0 0.00 0.00 0.00 23 1008.7
20260505014059 70 281 0.0 0.0 0.00 0.00 0.00 23 1008.7
20260505013540 70 251 0.0 0.0 0.00 0.00 0.00 23 1008.5
20260505013028 71 236 0.0 0.0 0.00 0.00 0.00 23 1008.3
20260505012512 71 240 0.0 0.0 0.00 0.00 0.00 23 1008.3
20260505012101 71 269 0.0 0.0 0.00 0.00 0.00 23 1008.2
20260505011551 71 260 0.0 0.0 0.00 0.00 0.00 23 1008.3
20260505011034 71 259 0.0 0.0 0.00 0.00 0.00 22 1008.2
20260505010518 71 259 0.0 0.0 0.00 0.00 0.00 22 1008.2
20260505010006 71 283 0.0 0.0 0.00 0.00 0.00 22 1008.2
20260505005555 71 276 0.0 0.0 0.00 0.00 0.00 22 1008.2
20260505005040 71 240 0.0 0.0 0.00 0.00 0.00 22 1008.2
20260505004534 71 273 0.0 0.0 0.00 0.00 0.00 22 1008.2
20260505004004 71 268 0.0 0.0 0.00 0.00 0.00 22 1008.3
20260505003552 71 246 0.0 0.0 0.00 0.00 0.00 21 1008.3
20260505003032 72 261 0.0 0.0 0.00 0.00 0.00 21 1008.4
20260505002518 72 267 0.0 0.0 0.00 0.00 0.00 21 1008.5
20260505002104 72 261 0.0 0.0 0.00 0.00 0.00 21 1008.6
20260505001552 72 267 0.0 0.0 0.00 0.00 0.00 21 1008.6
20260505001036 72 261 0.0 0.0 0.00 0.00 0.00 20 1008.6
20260505000520 72 245 0.9 0.0 0.00 0.00 0.00 20 1008.7
20260505000008 72 261 3.5 0.0 0.00 0.00 0.00 20 1008.7
20260504235554 72 234 4.3 0.0 0.00 0.00 0.00 20 1008.6
20260504235039 72 228 4.3 0.0 0.00 0.00 0.00 19 1008.7
20260504234524 72 245 5.2 0.0 0.00 0.00 0.00 19 1008.7
20260504234011 72 232 5.2 0.0 0.00 0.00 0.00 19 1008.8
20260504233600 72 225 4.3 0.0 0.00 0.00 0.00 19 1008.9
20260504233045 72 241 5.2 0.0 0.00 0.00 0.00 19 1008.9
20260504232530 72 238 5.2 0.0 0.00 0.00 0.00 19 1008.9
20260504232009 72 257 5.2 0.0 0.00 0.00 0.00 19 1008.8
20260504231559 73 255 5.2 0.0 0.00 0.00 0.00 18 1008.8
20260504231046 73 302 6.1 0.0 0.00 0.00 0.00 18 1008.8
20260504230531 73 246 7.0 0.0 0.00 0.00 0.00 18 1008.7
20260504230015 73 242 6.1 0.0 0.00 0.00 0.00 18 1008.7
20260504225605 73 264 5.2 0.0 0.00 0.00 0.00 18 1008.7
20260504225051 74 215 4.3 0.0 0.00 0.00 0.00 18 1008.8
20260504224537 74 246 5.2 0.0 0.00 0.00 0.00 17 1008.7
20260504224024 74 278 6.1 0.0 0.00 0.00 0.00 18 1008.8
20260504223509 74 273 6.1 0.0 0.00 0.00 0.00 17 1008.9
20260504223104 74 232 7.0 0.0 0.00 0.00 0.00 17 1009.2
20260504222543 74 259 5.2 0.0 0.00 0.00 0.00 17 1009.1
20260504222027 74 229 4.3 0.0 0.00 0.00 0.00 17 1009.1
20260504221514 74 237 6.1 0.0 0.00 0.00 0.00 17 1009.1
20260504221101 74 213 6.1 0.0 0.00 0.00 0.00 16 1009.1
20260504220546 75 209 4.3 0.0 0.00 0.00 0.00 17 1009.4
20260504220031 75 234 4.3 0.0 0.00 0.00 0.00 17 1009.4
20260504215516 75 221 4.3 0.0 0.00 0.00 0.00 18 1009.3
20260504215104 75 254 5.2 0.0 0.00 0.00 0.00 17 1009.4